Year,Month,Day,Hour,Minute,Value (Times are PST for temperature in C)
2011,07,05,00,00,12.70
2011,07,05,00,01,12.70
2011,07,05,00,02,12.70
2011,07,05,00,03,12.70
2011,07,05,00,04,12.60
2011,07,05,00,05,12.60
2011,07,05,00,06,12.60
2011,07,05,00,07,12.50
2011,07,05,00,08,12.40
2011,07,05,00,09,12.40
2011,07,05,00,10,12.40
2011,07,05,00,11,12.40
2011,07,05,00,12,12.40
2011,07,05,00,13,12.30
2011,07,05,00,14,12.30
2011,07,05,00,15,12.30
2011,07,05,00,16,12.30
2011,07,05,00,17,12.30
2011,07,05,00,18,12.30
2011,07,05,00,19,12.30
2011,07,05,00,20,12.30
2011,07,05,00,21,12.30
2011,07,05,00,22,12.30
2011,07,05,00,23,12.30
2011,07,05,00,24,12.30
2011,07,05,00,25,12.30
2011,07,05,00,26,12.30
2011,07,05,00,27,12.30
2011,07,05,00,28,12.30
2011,07,05,00,29,12.30
2011,07,05,00,30,12.30
2011,07,05,00,31,12.30
2011,07,05,00,32,12.30
2011,07,05,00,33,12.40
2011,07,05,00,34,12.40
2011,07,05,00,35,12.40
2011,07,05,00,36,12.40
2011,07,05,00,37,12.40
2011,07,05,00,38,12.40
2011,07,05,00,39,12.40
2011,07,05,00,40,12.30
2011,07,05,00,41,12.30
2011,07,05,00,42,12.30
2011,07,05,00,43,12.30
2011,07,05,00,44,12.30
2011,07,05,00,45,12.30
2011,07,05,00,46,12.30
2011,07,05,00,47,12.30
2011,07,05,00,48,12.30
2011,07,05,00,49,12.30
2011,07,05,00,50,12.30
2011,07,05,00,51,12.30
2011,07,05,00,52,12.30
2011,07,05,00,53,12.30
2011,07,05,00,54,12.30
2011,07,05,00,55,12.30
2011,07,05,00,56,12.30
2011,07,05,00,57,12.30
2011,07,05,00,58,12.30
2011,07,05,00,59,12.30
2011,07,05,01,00,12.30
2011,07,05,01,01,12.30
2011,07,05,01,02,12.30
2011,07,05,01,03,12.30
2011,07,05,01,04,12.30
2011,07,05,01,05,12.20
2011,07,05,01,06,12.20
2011,07,05,01,07,12.20
2011,07,05,01,08,12.20
2011,07,05,01,09,12.20
2011,07,05,01,10,12.20
2011,07,05,01,11,12.20
2011,07,05,01,12,12.20
2011,07,05,01,13,12.20
2011,07,05,01,14,12.20
2011,07,05,01,15,12.20
2011,07,05,01,16,12.20
2011,07,05,01,17,12.20
2011,07,05,01,18,12.20
2011,07,05,01,19,12.20
2011,07,05,01,20,12.20
2011,07,05,01,21,12.20
2011,07,05,01,22,12.20
2011,07,05,01,23,12.20
2011,07,05,01,24,12.20
2011,07,05,01,25,12.20
2011,07,05,01,26,12.10
2011,07,05,01,27,12.10
2011,07,05,01,28,12.10
2011,07,05,01,29,12.10
2011,07,05,01,30,12.10
2011,07,05,01,31,12.10
2011,07,05,01,32,12.10
2011,07,05,01,33,12.10
2011,07,05,01,34,12.10
2011,07,05,01,35,12.10
2011,07,05,01,36,12.10
2011,07,05,01,37,12.20
2011,07,05,01,38,12.20
2011,07,05,01,39,12.20
2011,07,05,01,40,12.20
2011,07,05,01,41,12.20
2011,07,05,01,42,12.20
2011,07,05,01,43,12.10
2011,07,05,01,44,12.10
2011,07,05,01,45,12.10
2011,07,05,01,46,12.10
2011,07,05,01,47,12.00
2011,07,05,01,48,12.00
2011,07,05,01,49,11.90
2011,07,05,01,50,11.90
2011,07,05,01,51,11.90
2011,07,05,01,52,11.80
2011,07,05,01,53,11.80
2011,07,05,01,54,11.80
2011,07,05,01,55,11.70
2011,07,05,01,56,11.70
2011,07,05,01,57,11.70
2011,07,05,01,58,11.70
2011,07,05,01,59,11.70
2011,07,05,02,00,11.70
2011,07,05,02,01,11.80
2011,07,05,02,02,11.80
2011,07,05,02,03,11.80
2011,07,05,02,04,11.80
2011,07,05,02,05,11.90
2011,07,05,02,06,11.90
2011,07,05,02,07,11.90
2011,07,05,02,08,11.90
2011,07,05,02,09,11.90
2011,07,05,02,10,11.80
2011,07,05,02,11,11.80
2011,07,05,02,12,11.80
2011,07,05,02,13,11.80
2011,07,05,02,14,11.80
2011,07,05,02,15,11.80
2011,07,05,02,16,11.80
2011,07,05,02,17,11.80
2011,07,05,02,18,11.80
2011,07,05,02,19,11.80
2011,07,05,02,20,11.80
2011,07,05,02,21,11.80
2011,07,05,02,22,11.80
2011,07,05,02,23,11.80
2011,07,05,02,24,11.80
2011,07,05,02,25,11.70
2011,07,05,02,26,11.70
2011,07,05,02,27,11.70
2011,07,05,02,28,11.60
2011,07,05,02,29,11.60
2011,07,05,02,30,11.60
2011,07,05,02,31,11.60
2011,07,05,02,32,11.60
2011,07,05,02,33,11.60
2011,07,05,02,34,11.50
2011,07,05,02,35,11.50
2011,07,05,02,36,11.50
2011,07,05,02,37,11.50
2011,07,05,02,38,11.50
2011,07,05,02,39,11.50
2011,07,05,02,40,11.40
2011,07,05,02,41,11.40
2011,07,05,02,42,11.40
2011,07,05,02,43,11.40
2011,07,05,02,44,11.40
2011,07,05,02,45,11.40
2011,07,05,02,46,11.40
2011,07,05,02,47,11.40
2011,07,05,02,48,11.30
2011,07,05,02,49,11.30
2011,07,05,02,50,11.30
2011,07,05,02,51,11.30
2011,07,05,02,52,11.20
2011,07,05,02,53,11.20
2011,07,05,02,54,11.20
2011,07,05,02,55,11.20
2011,07,05,02,56,11.20
2011,07,05,02,57,11.20
2011,07,05,02,58,11.20
2011,07,05,02,59,11.20
2011,07,05,03,00,11.10
2011,07,05,03,01,11.10
2011,07,05,03,02,11.10
2011,07,05,03,06,11.10
2011,07,05,03,07,11.10
2011,07,05,03,08,11.10
2011,07,05,03,09,11.00
2011,07,05,03,10,11.00
2011,07,05,03,11,11.00
2011,07,05,03,12,11.00
2011,07,05,03,13,10.90
2011,07,05,03,14,10.90
2011,07,05,03,15,10.90
2011,07,05,03,16,10.90
2011,07,05,03,17,10.90
2011,07,05,03,18,10.90
2011,07,05,03,19,10.90
2011,07,05,03,20,10.90
2011,07,05,03,21,10.90
2011,07,05,03,22,10.80
2011,07,05,03,23,10.80
2011,07,05,03,24,10.80
2011,07,05,03,25,10.80
2011,07,05,03,26,10.80
2011,07,05,03,27,10.80
2011,07,05,03,28,10.80
2011,07,05,03,29,10.80
2011,07,05,03,30,10.80
2011,07,05,03,31,10.80
2011,07,05,03,32,10.70
2011,07,05,03,33,10.80
2011,07,05,03,34,10.80
2011,07,05,03,35,10.80
2011,07,05,03,36,10.80
2011,07,05,03,37,10.80
2011,07,05,03,38,10.80
2011,07,05,03,39,10.80
2011,07,05,03,40,10.80
2011,07,05,03,41,10.80
2011,07,05,03,42,10.80
2011,07,05,03,43,10.80
2011,07,05,03,44,10.70
2011,07,05,03,45,10.70
2011,07,05,03,46,10.70
2011,07,05,03,47,10.70
2011,07,05,03,48,10.70
2011,07,05,03,49,10.70
2011,07,05,03,50,10.70
2011,07,05,03,51,10.70
2011,07,05,03,52,10.70
2011,07,05,03,53,10.70
2011,07,05,03,54,10.70
2011,07,05,03,55,10.70
2011,07,05,03,56,10.70
2011,07,05,03,57,10.70
2011,07,05,03,58,10.60
2011,07,05,03,59,10.60
2011,07,05,04,00,10.60
2011,07,05,04,01,10.60
2011,07,05,04,02,10.60
2011,07,05,04,03,10.50
2011,07,05,04,04,10.50
2011,07,05,04,05,10.50
2011,07,05,04,06,10.40
2011,07,05,04,07,10.40
2011,07,05,04,08,10.40
2011,07,05,04,09,10.40
2011,07,05,04,10,10.40
2011,07,05,04,11,10.30
2011,07,05,04,12,10.30
2011,07,05,04,13,10.30
2011,07,05,04,14,10.30
2011,07,05,04,15,10.30
2011,07,05,04,16,10.20
2011,07,05,04,17,10.20
2011,07,05,04,18,10.20
2011,07,05,04,19,10.20
2011,07,05,04,20,10.20
2011,07,05,04,21,10.20
2011,07,05,04,22,10.20
2011,07,05,04,23,10.10
2011,07,05,04,24,10.10
2011,07,05,04,25,10.10
2011,07,05,04,26,10.10
2011,07,05,04,27,10.10
2011,07,05,04,28,10.10
2011,07,05,04,29,10.10
2011,07,05,04,30,10.00
2011,07,05,04,31,10.00
2011,07,05,04,32,10.00
2011,07,05,04,33,10.00
2011,07,05,04,34,9.90
2011,07,05,04,35,9.90
2011,07,05,04,36,9.90
2011,07,05,04,37,9.90
2011,07,05,04,38,9.90
2011,07,05,04,39,9.90
2011,07,05,04,40,9.90
2011,07,05,04,41,9.90
2011,07,05,04,42,9.90
2011,07,05,04,43,9.80
2011,07,05,04,44,9.80
2011,07,05,04,45,9.80
2011,07,05,04,46,9.80
2011,07,05,04,47,9.80
2011,07,05,04,48,9.80
2011,07,05,04,49,9.80
2011,07,05,04,50,9.80
2011,07,05,04,51,9.80
2011,07,05,04,52,9.80
2011,07,05,04,53,9.80
2011,07,05,04,54,9.80
2011,07,05,04,55,9.80
2011,07,05,04,56,9.80
2011,07,05,04,57,9.80
2011,07,05,04,58,9.80
2011,07,05,04,59,9.80
2011,07,05,05,00,9.80
2011,07,05,05,01,9.80
2011,07,05,05,02,9.80
2011,07,05,05,03,9.80
2011,07,05,05,04,9.80
2011,07,05,05,05,9.80
2011,07,05,05,06,9.80
2011,07,05,05,07,9.90
2011,07,05,05,08,9.90
2011,07,05,05,09,9.90
2011,07,05,05,10,9.90
2011,07,05,05,11,9.90
2011,07,05,05,12,10.00
2011,07,05,05,13,10.00
2011,07,05,05,14,10.00
2011,07,05,05,15,10.00
2011,07,05,05,16,10.00
2011,07,05,05,17,10.00
2011,07,05,05,18,10.10
2011,07,05,05,19,10.10
2011,07,05,05,20,10.10
2011,07,05,05,21,10.10
2011,07,05,05,22,10.10
2011,07,05,05,23,10.10
2011,07,05,05,24,10.10
2011,07,05,05,25,10.10
2011,07,05,05,26,10.10
2011,07,05,05,27,10.10
2011,07,05,05,28,10.10
2011,07,05,05,29,10.10
2011,07,05,05,30,10.10
2011,07,05,05,31,10.10
2011,07,05,05,32,10.10
2011,07,05,05,33,10.10
2011,07,05,05,34,10.10
2011,07,05,05,35,10.10
2011,07,05,05,36,10.10
2011,07,05,05,37,10.10
2011,07,05,05,38,10.10
2011,07,05,05,39,10.10
2011,07,05,05,40,10.10
2011,07,05,05,41,10.00
2011,07,05,05,42,10.00
2011,07,05,05,43,10.00
2011,07,05,05,44,9.90
2011,07,05,05,45,9.90
2011,07,05,05,46,9.90
2011,07,05,05,47,9.90
2011,07,05,05,48,9.90
2011,07,05,05,49,9.90
2011,07,05,05,50,9.90
2011,07,05,05,51,9.80
2011,07,05,05,52,9.80
2011,07,05,05,53,9.80
2011,07,05,05,54,9.80
2011,07,05,05,55,9.80
2011,07,05,05,56,9.80
2011,07,05,05,57,9.80
2011,07,05,05,58,9.80
2011,07,05,05,59,9.70
2011,07,05,06,00,9.70
2011,07,05,06,01,9.70
2011,07,05,06,02,9.70
2011,07,05,06,03,9.70
2011,07,05,06,04,9.70
2011,07,05,06,05,9.70
2011,07,05,06,06,9.70
2011,07,05,06,07,9.70
2011,07,05,06,08,9.70
2011,07,05,06,09,9.70
2011,07,05,06,10,9.70
2011,07,05,06,11,9.70
2011,07,05,06,12,9.70
2011,07,05,06,13,9.70
2011,07,05,06,14,9.70
2011,07,05,06,15,9.80
2011,07,05,06,16,9.80
2011,07,05,06,17,9.80
2011,07,05,06,18,9.80
2011,07,05,06,19,9.80
2011,07,05,06,20,9.90
2011,07,05,06,21,9.90
2011,07,05,06,22,9.90
2011,07,05,06,23,9.90
2011,07,05,06,24,9.90
2011,07,05,06,25,10.00
2011,07,05,06,26,10.00
2011,07,05,06,27,10.10
2011,07,05,06,28,10.10
2011,07,05,06,29,10.10
2011,07,05,06,30,10.10
2011,07,05,06,31,10.10
2011,07,05,06,32,10.20
2011,07,05,06,33,10.20
2011,07,05,06,34,10.20
2011,07,05,06,35,10.20
2011,07,05,06,36,10.20
2011,07,05,06,37,10.20
2011,07,05,06,38,10.20
2011,07,05,06,39,10.20
2011,07,05,06,40,10.20
2011,07,05,06,41,10.30
2011,07,05,06,42,10.30
2011,07,05,06,43,10.30
2011,07,05,06,44,10.30
2011,07,05,06,45,10.40
2011,07,05,06,46,10.50
2011,07,05,06,47,10.50
2011,07,05,06,48,10.60
2011,07,05,06,49,10.70
2011,07,05,06,50,10.80
2011,07,05,06,51,10.90
2011,07,05,06,52,11.00
2011,07,05,06,53,11.00
2011,07,05,06,54,11.10
2011,07,05,06,55,11.20
2011,07,05,06,56,11.20
2011,07,05,06,57,11.30
2011,07,05,06,58,11.30
2011,07,05,06,59,11.40
2011,07,05,07,00,11.40
2011,07,05,07,01,11.50
2011,07,05,07,02,11.50
2011,07,05,07,03,11.60
2011,07,05,07,04,11.60
2011,07,05,07,05,11.70
2011,07,05,07,06,11.70
2011,07,05,07,07,11.80
2011,07,05,07,08,11.80
2011,07,05,07,09,11.90
2011,07,05,07,10,11.90
2011,07,05,07,11,12.00
2011,07,05,07,12,12.10
2011,07,05,07,13,12.20
2011,07,05,07,14,12.20
2011,07,05,07,15,12.30
2011,07,05,07,16,12.30
2011,07,05,07,17,12.30
2011,07,05,07,18,12.40
2011,07,05,07,19,12.40
2011,07,05,07,20,12.50
2011,07,05,07,21,12.50
2011,07,05,07,22,12.50
2011,07,05,07,23,12.60
2011,07,05,07,24,12.60
2011,07,05,07,25,12.60
2011,07,05,07,26,12.60
2011,07,05,07,27,12.60
2011,07,05,07,28,12.70
2011,07,05,07,29,12.70
2011,07,05,07,30,12.70
2011,07,05,07,31,12.70
2011,07,05,07,32,12.70
2011,07,05,07,33,12.70
2011,07,05,07,34,12.70
2011,07,05,07,35,12.70
2011,07,05,07,36,12.70
2011,07,05,07,37,12.80
2011,07,05,07,38,12.80
2011,07,05,07,39,12.80
2011,07,05,07,40,12.90
2011,07,05,07,41,13.00
2011,07,05,07,42,13.00
2011,07,05,07,43,13.10
2011,07,05,07,44,13.10
2011,07,05,07,45,13.20
2011,07,05,07,46,13.20
2011,07,05,07,47,13.30
2011,07,05,07,48,13.30
2011,07,05,07,49,13.40
2011,07,05,07,50,13.50
2011,07,05,07,51,13.50
2011,07,05,07,52,13.60
2011,07,05,07,53,13.70
2011,07,05,07,54,13.80
2011,07,05,07,55,13.80
2011,07,05,07,56,13.90
2011,07,05,07,57,14.10
2011,07,05,07,58,14.20
2011,07,05,07,59,14.30
2011,07,05,08,00,14.30
2011,07,05,08,01,14.40
2011,07,05,08,02,14.50
2011,07,05,08,03,14.50
2011,07,05,08,04,14.60
2011,07,05,08,05,14.60
2011,07,05,08,06,14.70
2011,07,05,08,07,14.80
2011,07,05,08,08,14.90
2011,07,05,08,09,15.00
2011,07,05,08,10,15.00
2011,07,05,08,11,15.00
2011,07,05,08,12,15.00
2011,07,05,08,13,15.00
2011,07,05,08,14,15.00
2011,07,05,08,15,15.00
2011,07,05,08,16,15.10
2011,07,05,08,17,15.20
2011,07,05,08,18,15.20
2011,07,05,08,19,15.20
2011,07,05,08,20,15.20
2011,07,05,08,21,15.20
2011,07,05,08,22,15.10
2011,07,05,08,23,15.10
2011,07,05,08,24,15.20
2011,07,05,08,25,15.30
2011,07,05,08,26,15.30
2011,07,05,08,27,15.40
2011,07,05,08,28,15.40
2011,07,05,08,29,15.40
2011,07,05,08,30,15.40
2011,07,05,08,31,15.30
2011,07,05,08,32,15.20
2011,07,05,08,33,15.10
2011,07,05,08,34,15.10
2011,07,05,08,35,15.10
2011,07,05,08,36,15.10
2011,07,05,08,37,15.20
2011,07,05,08,38,15.30
2011,07,05,08,39,15.30
2011,07,05,08,40,15.30
2011,07,05,08,41,15.30
2011,07,05,08,42,15.30
2011,07,05,08,43,15.30
2011,07,05,08,44,15.30
2011,07,05,08,45,15.20
2011,07,05,08,46,15.20
2011,07,05,08,47,15.30
2011,07,05,08,48,15.30
2011,07,05,08,49,15.30
2011,07,05,08,50,15.30
2011,07,05,08,51,15.30
2011,07,05,08,52,15.40
2011,07,05,08,53,15.40
2011,07,05,08,54,15.40
2011,07,05,08,55,15.50
2011,07,05,08,56,15.60
2011,07,05,08,57,15.60
2011,07,05,08,58,15.60
2011,07,05,08,59,15.60
2011,07,05,09,00,15.60
2011,07,05,09,01,15.70
2011,07,05,09,02,15.70
2011,07,05,09,03,15.80
2011,07,05,09,04,15.80
2011,07,05,09,05,15.80
2011,07,05,09,06,15.90
2011,07,05,09,07,16.00
2011,07,05,09,08,16.10
2011,07,05,09,09,16.10
2011,07,05,09,10,16.20
2011,07,05,09,11,16.30
2011,07,05,09,12,16.40
2011,07,05,09,13,16.50
2011,07,05,09,14,16.60
2011,07,05,09,15,16.60
2011,07,05,09,16,16.70
2011,07,05,09,17,16.80
2011,07,05,09,18,16.90
2011,07,05,09,19,16.90
2011,07,05,09,20,16.90
2011,07,05,09,21,16.90
2011,07,05,09,22,16.90
2011,07,05,09,23,16.80
2011,07,05,09,24,16.70
2011,07,05,09,25,16.70
2011,07,05,09,26,16.60
2011,07,05,09,27,16.60
2011,07,05,09,28,16.60
2011,07,05,09,29,16.70
2011,07,05,09,30,16.70
2011,07,05,09,31,16.70
2011,07,05,09,32,16.80
2011,07,05,09,33,16.80
2011,07,05,09,34,16.80
2011,07,05,09,35,16.80
2011,07,05,09,36,16.80
2011,07,05,09,37,16.80
2011,07,05,09,38,16.90
2011,07,05,09,39,16.90
2011,07,05,09,40,17.00
2011,07,05,09,41,17.00
2011,07,05,09,42,17.10
2011,07,05,09,43,17.10
2011,07,05,09,44,17.00
2011,07,05,09,45,17.00
2011,07,05,09,46,16.90
2011,07,05,09,47,16.90
2011,07,05,09,48,16.90
2011,07,05,09,49,17.00
2011,07,05,09,50,17.00
2011,07,05,09,51,17.10
2011,07,05,09,52,17.10
2011,07,05,09,53,17.20
2011,07,05,09,54,17.20
2011,07,05,09,55,17.30
2011,07,05,09,56,17.30
2011,07,05,09,57,17.20
2011,07,05,09,58,17.10
2011,07,05,09,59,17.10
2011,07,05,10,00,17.00
2011,07,05,10,01,16.90
2011,07,05,10,02,16.90
2011,07,05,10,03,17.00
2011,07,05,10,04,17.00
2011,07,05,10,05,17.00
2011,07,05,10,06,17.00
2011,07,05,10,07,17.00
2011,07,05,10,08,17.00
2011,07,05,10,09,17.10
2011,07,05,10,10,17.10
2011,07,05,10,11,17.10
2011,07,05,10,12,17.00
2011,07,05,10,13,17.00
2011,07,05,10,14,16.90
2011,07,05,10,15,16.90
2011,07,05,10,16,17.00
2011,07,05,10,17,17.00
2011,07,05,10,18,16.90
2011,07,05,10,19,16.80
2011,07,05,10,20,16.80
2011,07,05,10,21,16.70
2011,07,05,10,22,16.70
2011,07,05,10,23,16.70
2011,07,05,10,24,16.70
2011,07,05,10,25,16.70
2011,07,05,10,26,16.70
2011,07,05,10,27,16.70
2011,07,05,10,28,16.70
2011,07,05,10,29,16.80
2011,07,05,10,30,16.80
2011,07,05,10,31,16.80
2011,07,05,10,32,16.90
2011,07,05,10,33,16.90
2011,07,05,10,34,16.90
2011,07,05,10,35,16.80
2011,07,05,10,36,16.80
2011,07,05,10,37,16.80
2011,07,05,10,38,16.90
2011,07,05,10,39,17.00
2011,07,05,10,40,17.20
2011,07,05,10,41,17.30
2011,07,05,10,42,17.50
2011,07,05,10,43,17.60
2011,07,05,10,44,17.70
2011,07,05,10,45,17.90
2011,07,05,10,46,18.00
2011,07,05,10,47,18.00
2011,07,05,10,48,18.00
2011,07,05,10,49,18.00
2011,07,05,10,50,18.00
2011,07,05,10,51,18.10
2011,07,05,10,52,18.10
2011,07,05,10,53,18.10
2011,07,05,10,54,18.00
2011,07,05,10,55,18.00
2011,07,05,10,56,17.90
2011,07,05,10,57,18.00
2011,07,05,10,58,18.00
2011,07,05,10,59,18.00
2011,07,05,11,00,18.00
2011,07,05,11,01,17.90
2011,07,05,11,02,17.90
2011,07,05,11,03,17.90
2011,07,05,11,04,18.00
2011,07,05,11,05,17.90
2011,07,05,11,06,18.00
2011,07,05,11,07,18.00
2011,07,05,11,08,17.90
2011,07,05,11,09,17.90
2011,07,05,11,10,17.90
2011,07,05,11,11,17.90
2011,07,05,11,12,17.80
2011,07,05,11,13,17.80
2011,07,05,11,14,17.80
2011,07,05,11,15,17.80
2011,07,05,11,16,17.80
2011,07,05,11,17,17.80
2011,07,05,11,18,17.80
2011,07,05,11,19,17.80
2011,07,05,11,20,17.90
2011,07,05,11,21,17.90
2011,07,05,11,22,18.00
2011,07,05,11,23,18.10
2011,07,05,11,24,18.30
2011,07,05,11,25,18.50
2011,07,05,11,26,18.70
2011,07,05,11,27,18.90
2011,07,05,11,28,18.90
2011,07,05,11,29,19.00
2011,07,05,11,30,19.10
2011,07,05,11,31,19.20
2011,07,05,11,32,19.30
2011,07,05,11,33,19.50
2011,07,05,11,34,19.60
2011,07,05,11,35,19.70
2011,07,05,11,36,19.90
2011,07,05,11,37,19.90
2011,07,05,11,38,20.00
2011,07,05,11,39,20.10
2011,07,05,11,40,20.00
2011,07,05,11,41,20.10
2011,07,05,11,42,20.10
2011,07,05,11,43,20.20
2011,07,05,11,44,20.30
2011,07,05,11,45,20.30
2011,07,05,11,46,20.40
2011,07,05,11,47,20.50
2011,07,05,11,48,20.60
2011,07,05,11,49,20.50
2011,07,05,11,50,20.50
2011,07,05,11,51,20.50
2011,07,05,11,52,20.60
2011,07,05,11,53,20.60
2011,07,05,11,54,20.60
2011,07,05,11,55,20.60
2011,07,05,11,56,20.60
2011,07,05,11,57,20.60
2011,07,05,11,58,20.50
2011,07,05,11,59,20.40
2011,07,05,12,00,20.30
2011,07,05,12,01,20.30
2011,07,05,12,02,20.40
2011,07,05,12,03,20.40
2011,07,05,12,04,20.50
2011,07,05,12,05,20.50
2011,07,05,12,06,20.60
2011,07,05,12,07,20.70
2011,07,05,12,08,20.70
2011,07,05,12,09,20.80
2011,07,05,12,10,20.90
2011,07,05,12,11,21.00
2011,07,05,12,12,21.10
2011,07,05,12,13,21.20
2011,07,05,12,14,21.20
2011,07,05,12,15,21.20
2011,07,05,12,16,21.30
2011,07,05,12,17,21.40
2011,07,05,12,18,21.40
2011,07,05,12,19,21.50
2011,07,05,12,20,21.50
2011,07,05,12,21,21.50
2011,07,05,12,22,21.60
2011,07,05,12,23,21.60
2011,07,05,12,24,21.60
2011,07,05,12,25,21.60
2011,07,05,12,26,21.60
2011,07,05,12,27,21.70
2011,07,05,12,28,21.70
2011,07,05,12,29,21.80
2011,07,05,12,30,21.80
2011,07,05,12,31,21.80
2011,07,05,12,32,21.80
2011,07,05,12,33,21.90
2011,07,05,12,34,22.00
2011,07,05,12,35,22.10
2011,07,05,12,36,22.10
2011,07,05,12,37,22.20
2011,07,05,12,38,22.10
2011,07,05,12,39,21.90
2011,07,05,12,40,21.80
2011,07,05,12,41,21.80
2011,07,05,12,42,21.80
2011,07,05,12,43,21.80
2011,07,05,12,44,21.80
2011,07,05,12,45,21.80
2011,07,05,12,46,21.80
2011,07,05,12,47,21.80
2011,07,05,12,48,21.80
2011,07,05,12,49,21.80
2011,07,05,12,50,21.80
2011,07,05,12,51,21.70
2011,07,05,12,52,21.60
2011,07,05,12,53,21.60
2011,07,05,12,54,21.70
2011,07,05,12,55,21.80
2011,07,05,12,56,21.90
2011,07,05,12,57,22.00
2011,07,05,12,58,22.10
2011,07,05,12,59,22.20
2011,07,05,13,00,22.20
2011,07,05,13,01,22.20
2011,07,05,13,02,22.30
2011,07,05,13,03,22.40
2011,07,05,13,04,22.40
2011,07,05,13,05,22.50
2011,07,05,13,06,22.50
2011,07,05,13,07,22.60
2011,07,05,13,08,22.60
2011,07,05,13,09,22.60
2011,07,05,13,10,22.60
2011,07,05,13,11,22.60
2011,07,05,13,12,22.60
2011,07,05,13,13,22.60
2011,07,05,13,14,22.60
2011,07,05,13,15,22.60
2011,07,05,13,16,22.70
2011,07,05,13,17,22.70
2011,07,05,13,18,22.70
2011,07,05,13,19,22.70
2011,07,05,13,20,22.70
2011,07,05,13,21,22.60
2011,07,05,13,22,22.60
2011,07,05,13,23,22.60
2011,07,05,13,24,22.70
2011,07,05,13,25,22.80
2011,07,05,13,26,22.80
2011,07,05,13,27,22.80
2011,07,05,13,28,22.80
2011,07,05,13,29,22.80
2011,07,05,13,30,22.80
2011,07,05,13,31,22.90
2011,07,05,13,32,22.90
2011,07,05,13,33,23.10
2011,07,05,13,34,23.20
2011,07,05,13,35,23.30
2011,07,05,13,36,23.40
2011,07,05,13,37,23.50
2011,07,05,13,38,23.60
2011,07,05,13,39,23.70
2011,07,05,13,40,23.80
2011,07,05,13,41,23.90
2011,07,05,13,42,23.90
2011,07,05,13,43,23.80
2011,07,05,13,44,23.70
2011,07,05,13,45,23.50
2011,07,05,13,46,23.40
2011,07,05,13,47,23.40
2011,07,05,13,48,23.50
2011,07,05,13,49,23.60
2011,07,05,13,50,23.70
2011,07,05,13,51,23.70
2011,07,05,13,52,23.70
2011,07,05,13,53,23.70
2011,07,05,13,54,23.70
2011,07,05,13,55,23.70
2011,07,05,13,56,23.70
2011,07,05,13,57,23.80
2011,07,05,13,58,23.90
2011,07,05,13,59,24.00
2011,07,05,14,00,24.00
2011,07,05,14,01,24.10
2011,07,05,14,02,24.10
2011,07,05,14,03,24.20
2011,07,05,14,04,24.20
2011,07,05,14,05,24.20
2011,07,05,14,06,24.20
2011,07,05,14,07,24.30
2011,07,05,14,08,24.30
2011,07,05,14,09,24.20
2011,07,05,14,10,24.20
2011,07,05,14,11,24.20
2011,07,05,14,12,24.20
2011,07,05,14,13,24.20
2011,07,05,14,14,24.30
2011,07,05,14,15,24.40
2011,07,05,14,16,24.50
2011,07,05,14,17,24.60
2011,07,05,14,18,24.70
2011,07,05,14,19,24.70
2011,07,05,14,20,24.80
2011,07,05,14,21,24.90
2011,07,05,14,22,25.00
2011,07,05,14,23,25.00
2011,07,05,14,24,25.10
2011,07,05,14,25,25.10
2011,07,05,14,26,25.10
2011,07,05,14,27,25.10
2011,07,05,14,28,25.10
2011,07,05,14,29,25.20
2011,07,05,14,30,25.20
2011,07,05,14,31,25.20
2011,07,05,14,32,25.30
2011,07,05,14,33,25.40
2011,07,05,14,34,25.50
2011,07,05,14,35,25.60
2011,07,05,14,36,25.70
2011,07,05,14,37,25.70
2011,07,05,14,38,25.80
2011,07,05,14,39,25.80
2011,07,05,14,40,25.80
2011,07,05,14,41,25.80
2011,07,05,14,42,25.80
2011,07,05,14,43,25.80
2011,07,05,14,44,25.70
2011,07,05,14,45,25.60
2011,07,05,14,46,25.50
2011,07,05,14,47,25.40
2011,07,05,14,48,25.40
2011,07,05,14,49,25.50
2011,07,05,14,50,25.60
2011,07,05,14,51,25.80
2011,07,05,14,52,25.90
2011,07,05,14,53,26.00
2011,07,05,14,54,26.20
2011,07,05,14,55,26.40
2011,07,05,14,56,26.60
2011,07,05,14,57,26.80
2011,07,05,14,58,27.00
2011,07,05,14,59,27.20
2011,07,05,15,00,27.30
2011,07,05,15,01,27.40
2011,07,05,15,02,27.40
2011,07,05,15,03,27.30
2011,07,05,15,04,27.30
2011,07,05,15,05,27.30
2011,07,05,15,06,27.20
2011,07,05,15,07,27.00
2011,07,05,15,08,26.80
2011,07,05,15,09,26.80
2011,07,05,15,10,26.70
2011,07,05,15,11,26.60
2011,07,05,15,12,26.60
2011,07,05,15,13,26.60
2011,07,05,15,14,26.60
2011,07,05,15,15,26.60
2011,07,05,15,16,26.70
2011,07,05,15,17,26.70
2011,07,05,15,18,26.70
2011,07,05,15,19,26.70
2011,07,05,15,20,26.70
2011,07,05,15,21,26.70
2011,07,05,15,22,26.70
2011,07,05,15,23,26.90
2011,07,05,15,24,27.00
2011,07,05,15,25,27.20
2011,07,05,15,26,27.30
2011,07,05,15,27,27.30
2011,07,05,15,28,27.20
2011,07,05,15,29,27.00
2011,07,05,15,30,26.90
2011,07,05,15,31,26.70
2011,07,05,15,32,26.50
2011,07,05,15,33,26.30
2011,07,05,15,34,26.20
2011,07,05,15,35,26.20
2011,07,05,15,36,26.10
2011,07,05,15,37,25.90
2011,07,05,15,38,25.80
2011,07,05,15,39,25.50
2011,07,05,15,40,25.40
2011,07,05,15,41,25.30
2011,07,05,15,42,25.30
2011,07,05,15,43,25.30
2011,07,05,15,44,25.30
2011,07,05,15,45,25.20
2011,07,05,15,46,25.10
2011,07,05,15,47,24.90
2011,07,05,15,48,24.80
2011,07,05,15,49,24.80
2011,07,05,15,50,24.80
2011,07,05,15,51,24.70
2011,07,05,15,52,24.70
2011,07,05,15,53,24.70
2011,07,05,15,54,24.80
2011,07,05,15,55,24.90
2011,07,05,15,56,25.00
2011,07,05,15,57,25.20
2011,07,05,15,58,25.30
2011,07,05,15,59,25.40
2011,07,05,16,00,25.40
2011,07,05,16,01,25.50
2011,07,05,16,02,25.60
2011,07,05,16,03,25.80
2011,07,05,16,04,25.90
2011,07,05,16,05,25.90
2011,07,05,16,06,25.90
2011,07,05,16,07,26.10
2011,07,05,16,08,26.10
2011,07,05,16,09,26.00
2011,07,05,16,10,26.00
2011,07,05,16,11,25.90
2011,07,05,16,12,25.80
2011,07,05,16,13,25.70
2011,07,05,16,14,25.60
2011,07,05,16,15,25.50
2011,07,05,16,16,25.30
2011,07,05,16,17,25.20
2011,07,05,16,18,25.10
2011,07,05,16,19,25.00
2011,07,05,16,20,24.90
2011,07,05,16,21,24.90
2011,07,05,16,22,25.10
2011,07,05,16,23,25.10
2011,07,05,16,24,25.20
2011,07,05,16,25,25.30
2011,07,05,16,26,25.30
2011,07,05,16,27,25.30
2011,07,05,16,28,25.40
2011,07,05,16,29,25.50
2011,07,05,16,30,25.50
2011,07,05,16,31,25.40
2011,07,05,16,32,25.40
2011,07,05,16,33,25.20
2011,07,05,16,34,25.10
2011,07,05,16,35,25.00
2011,07,05,16,36,24.90
2011,07,05,16,37,24.80
2011,07,05,16,38,24.80
2011,07,05,16,39,24.90
2011,07,05,16,40,24.90
2011,07,05,16,41,25.00
2011,07,05,16,42,25.10
2011,07,05,16,43,25.20
2011,07,05,16,44,25.30
2011,07,05,16,45,25.50
2011,07,05,16,46,25.60
2011,07,05,16,47,25.70
2011,07,05,16,48,25.70
2011,07,05,16,49,25.80
2011,07,05,16,50,25.80
2011,07,05,16,51,25.80
2011,07,05,16,52,25.90
2011,07,05,16,53,25.90
2011,07,05,16,54,25.90
2011,07,05,16,55,26.00
2011,07,05,16,56,26.20
2011,07,05,16,57,26.30
2011,07,05,16,58,26.30
2011,07,05,16,59,26.40
2011,07,05,17,00,26.40
2011,07,05,17,01,26.30
2011,07,05,17,02,26.30
2011,07,05,17,03,26.30
2011,07,05,17,04,26.30
2011,07,05,17,05,26.30
2011,07,05,17,06,26.30
2011,07,05,17,07,26.30
2011,07,05,17,08,26.20
2011,07,05,17,09,26.20
2011,07,05,17,10,26.30
2011,07,05,17,11,26.40
2011,07,05,17,12,26.50
2011,07,05,17,13,26.60
2011,07,05,17,14,26.60
2011,07,05,17,15,26.60
2011,07,05,17,16,26.60
2011,07,05,17,17,26.50
2011,07,05,17,18,26.50
2011,07,05,17,19,26.40
2011,07,05,17,20,26.40
2011,07,05,17,21,26.30
2011,07,05,17,22,26.30
2011,07,05,17,23,26.20
2011,07,05,17,24,26.20
2011,07,05,17,25,26.10